Wind_Speed
18 18 19 19 19 17 18 16 16 18 15 10 7 15 10 10 10 11 13 7 10 11 14 10 12 16 11 10 10 11 11 11 13 14 13 13 16 21 19 20 17 16 17
19 17 18 18 18 18 18 17 16 16 16 16 14 15 14 14 14 13 12 12 12 11 11 12 13 13 15 16 15 13 12 13 12 17 17 17 16 17 20 22 16 15 14
22 20 18 18 18 20 20 18 18 17 16 16 17 18 15 15 16 16 16 14 14 13 12 12 13 14 17 15 14 14 13 13 12 12 15 14 15 15 16 16 18 16 15
11 19 20 18 19 19 19 20 18 19 18 17 18 20 18 17 16 16 17 18 18 17 16 15 15 16 17 16 16 16 16 16 13 14 14 14 13 13 14 14 15 15 16
12 8 7 14 17 18 20 19 24 22 22 21 20 21 23 21 20 21 20 19 22 21 18 17 18 19 19 20 15 16 15 16 13 14 15 15 13 13 12 14 17 17 17
11 12 10 10 10 14 15 18 22 26 29 26 25 25 24 23 24 25 24 20 23 23 20 21 20 21 23 21 19 18 21 20 22 18 17 17 20 19 15 16 16 17 20
6 9 17 19 18 19 18 19 19 20 22 28 31 28 29 30 26 28 30 30 26 23 23 24 19 21 24 24 23 24 24 24 26 24 25 23 22 20 21 22 18 18 21
9 6 13 13 15 18 21 20 21 24 24 24 27 31 32 31 31 30 31 33 34 34 31 26 28 29 27 22 26 25 27 27 28 28 29 29 27 25 21 20 21 22 22
16 15 11 9 15 18 19 18 18 20 23 28 27 27 30 32 33 33 33 34 34 37 38 38 38 32 33 31 31 28 29 30 25 27 28 29 28 26 26 26 24 21 25
13 14 13 15 14 13 14 18 23 21 21 25 25 26 29 30 31 32 35 34 31 34 35 38 40 43 44 40 38 38 40 41 32 29 29 29 29 31 30 30 31 28 25
13 13 14 14 16 15 14 15 20 23 24 20 24 27 28 29 30 31 33 33 32 32 33 33 33 34 35 38 42 44 46 41 34 32 33 32 30 29 29 28 27 26 27
16 16 15 15 16 14 18 16 15 18 21 25 23 25 27 31 30 31 35 35 34 34 35 33 33 33 34 35 35 36 35 34 37 38 38 36 33 31 28 28 31 31 31
19 18 18 18 17 18 19 18 14 17 16 16 16 20 21 24 27 27 29 30 32 33 37 39 36 35 37 35 35 36 34 33 36 39 41 42 37 34 32 31 30 28 28
21 22 21 20 20 20 18 16 15 15 15 17 18 15 19 17 18 23 26 27 25 27 30 32 37 42 41 41 37 36 36 39 40 40 38 37 36 32 32 30 30 29 29
23 23 22 21 21 21 20 20 18 20 20 22 22 24 26 27 21 17 19 21 25 19 22 21 24 27 35 43 40 39 34 33 30 34 35 33 32 31 31 30 30 29 28
19 21 22 22 22 23 23 23 23 28 28 29 29 29 30 32 30 26 28 27 29 32 31 32 28 24 29 32 31 32 32 34 32 30 28 30 33 32 31 30 30 29 29
17 20 22 22 23 24 24 25 26 24 27 29 29 30 28 33 33 32 27 24 25 30 33 30 35 37 32 30 32 34 33 31 29 27 30 31 29 28 29 31 31 29 30
19 22 26 23 24 26 26 27 27 26 26 25 25 26 32 30 31 33 32 29 27 27 35 38 38 39 37 32 36 36 34 29 32 36 35 33 32 31 29 29 29 29 30
21 20 21 23 24 27 29 28 28 28 27 28 26 24 23 25 31 34 32 26 27 29 31 35 38 36 38 41 41 36 35 36 33 33 33 33 31 32 29 28 28 29 29
24 25 25 23 26 27 27 27 28 29 28 28 26 25 22 20 25 30 28 27 24 27 29 32 31 33 41 40 35 35 34 38 35 32 32 31 30 31 31 33 35 34 31
22 23 25 28 27 27 28 27 27 28 29 28 28 23 25 29 27 31 35 33 29 27 28 28 34 34 35 33 29 32 36 37 35 33 31 31 30 31 31 30 30 30 30
23 25 27 27 28 29 32 31 29 31 27 28 28 26 27 29 27 31 35 35 33 30 28 28 30 38 41 36 34 36 33 32 32 31 30 29 27 27 29 32 30 30 31
21 21 22 25 26 29 32 32 34 33 29 28 28 26 24 23 25 30 32 35 34 33 31 27 31 29 34 36 35 32 29 29 31 35 35 31 28 27 31 34 31 29 28
20 20 21 23 24 28 31 32 32 36 37 34 30 29 31 34 37 35 33 33 34 33 31 27 27 30 30 33 35 35 33 30 37 35 32 31 27 26 29 31 29 24 25
22 21 21 21 22 23 26 29 31 35 37 37 38 38 37 37 36 34 33 31 31 31 29 26 26 27 27 30 32 33 33 35 39 35 28 24 22 21 22 21 22 18 20
22 25 23 23 22 23 24 25 27 28 30 33 34 36 35 36 36 33 32 29 26 26 23 23 21 21 20 18 20 23 26 26 24 23 24 23 21 21 20 18 16 16 19
Wind_Direction
212 214 216 218 219 220 219 221 224 221 220 250 227 221 223 227 231 230 207 227 244 223 212 226 243 231 237 242 248 251 258 264 270 275 278 289 290 301 304 301 308 316 322
216 216 219 220 219 223 225 224 226 229 226 221 236 235 224 231 232 236 238 226 233 236 233 237 238 245 254 238 242 250 255 260 269 277 279 287 294 296 302 313 311 302 305
216 218 222 222 221 222 226 226 225 228 231 226 224 239 229 230 235 241 238 236 231 239 239 244 247 245 244 239 244 247 254 268 269 272 285 287 288 287 294 303 308 310 322
206 216 218 226 223 228 231 225 228 230 231 233 225 222 238 238 238 241 241 240 237 238 245 246 248 251 249 253 249 240 248 252 261 271 277 282 289 291 289 297 303 304 307
188 216 174 228 237 231 228 239 228 228 238 238 237 231 228 231 236 244 236 242 249 241 236 246 250 248 249 244 242 253 246 258 259 265 270 276 280 290 291 296 298 304 302
237 224 226 218 214 228 246 244 239 232 224 234 241 239 235 233 239 236 239 241 238 246 242 245 244 250 256 254 249 240 239 242 250 258 265 269 272 285 288 290 290 298 302
232 233 240 243 238 230 229 238 247 250 243 230 236 238 239 244 235 235 239 238 238 249 248 253 243 249 257 265 264 257 255 254 258 263 264 266 271 274 278 282 286 281 287
10 277 252 243 240 238 242 240 249 247 246 246 241 239 242 244 244 242 240 243 245 242 239 248 251 248 241 255 262 256 263 263 260 260 266 277 279 281 281 284 288 293 296
4 359 339 321 266 258 253 247 243 248 248 246 244 242 246 249 244 245 246 245 246 249 252 250 242 248 256 253 245 250 256 255 263 274 279 285 290 288 283 277 268 274 280
355 351 349 339 329 303 271 257 253 250 257 252 244 247 247 250 252 253 246 243 245 249 256 259 257 254 251 250 256 257 256 256 257 258 262 272 274 277 280 275 272 264 269
334 333 332 328 331 325 306 281 261 257 259 262 257 251 245 246 253 256 256 251 244 246 251 251 257 264 261 259 258 255 258 263 260 266 269 269 266 269 275 278 276 273 274
317 319 319 321 319 312 317 319 299 279 263 259 264 267 260 255 251 250 255 257 257 248 244 249 256 260 261 264 264 264 266 268 263 258 259 260 261 262 265 267 269 273 274
304 305 305 307 309 309 307 309 315 313 298 279 277 272 278 277 260 254 255 260 268 264 260 255 249 250 253 257 258 260 262 262 259 256 254 256 255 257 260 261 262 269 268
296 296 298 298 298 305 300 297 296 299 297 299 280 278 261 268 268 264 260 262 260 263 269 268 260 254 249 248 254 260 260 259 258 258 256 258 258 255 256 259 259 257 258
292 290 289 289 290 289 287 291 286 281 280 281 290 293 285 266 264 265 266 263 257 254 263 269 264 262 257 255 253 251 255 264 263 257 247 250 251 252 254 255 255 255 256
287 285 283 280 279 282 283 284 286 295 286 283 284 284 286 283 278 272 270 279 275 275 267 268 263 252 253 253 253 253 251 251 252 253 260 256 250 251 253 255 254 253 254
293 286 277 276 278 279 279 279 282 280 290 295 284 281 279 282 284 279 274 272 277 268 263 277 272 263 260 255 251 252 250 248 243 250 247 249 251 250 251 253 253 253 253
298 277 273 275 276 277 279 278 275 276 280 278 286 286 283 280 281 279 272 272 276 280 267 272 281 264 258 264 261 249 247 251 248 249 242 243 245 250 251 250 252 253 254
306 293 285 281 277 275 273 275 273 275 276 278 282 284 292 296 277 279 279 279 276 278 284 281 278 265 250 252 256 256 254 252 248 249 246 248 246 242 243 245 251 254 255
300 296 285 277 278 275 275 271 270 271 273 275 277 279 282 282 283 279 281 286 283 279 271 274 263 260 254 262 258 256 255 254 255 247 246 250 250 250 255 256 256 252 250
299 292 285 277 274 270 275 274 272 271 269 270 271 273 274 273 280 284 281 283 279 279 282 270 247 247 251 248 254 258 256 258 256 258 255 255 256 258 261 265 266 268 264
300 292 287 283 282 279 272 269 276 274 270 270 272 274 274 276 276 278 279 280 280 277 276 274 264 243 245 245 247 257 260 260 264 262 256 257 260 266 269 272 273 278 277
310 301 293 286 279 275 275 276 270 273 274 269 268 268 268 270 269 272 276 277 277 276 273 268 264 258 245 241 240 248 256 268 264 261 258 252 254 266 271 262 263 273 278
325 314 306 299 292 287 284 280 273 267 263 266 271 268 268 270 274 274 271 270 272 273 272 266 263 259 256 249 246 247 251 258 262 259 254 255 257 259 259 256 258 262 271
341 333 327 317 308 298 292 286 280 272 267 266 265 268 271 273 272 273 270 266 266 265 264 262 259 259 251 251 249 245 247 253 258 255 253 256 256 249 246 253 256 255 280
343 349 342 336 325 315 302 294 288 282 278 273 269 269 268 267 267 269 266 262 259 256 254 253 249 248 246 242 244 244 250 252 248 245 249 253 251 251 250 253 264 269 262
Height
1569 1573 1576 1579 1582 1584 1587 1589 1591 1593 1595 1597 1597 1601 1603 1605 1606 1607 1607 1609 1608 1610 1610 1612 1612 1612 1613 1614 1615 1615 1615 1615 1614 1613 1612 1611 1608 1606 1602 1600 1598 1596 1594
1565 1569 1572 1576 1579 1582 1583 1586 1588 1589 1591 1594 1597 1598 1600 1603 1604 1604 1606 1607 1608 1608 1609 1609 1610 1611 1610 1610 1610 1611 1611 1611 1611 1609 1609 1608 1606 1604 1600 1597 1596 1595 1593
1560 1565 1568 1572 1575 1577 1580 1582 1584 1586 1587 1590 1593 1595 1597 1599 1601 1602 1602 1604 1605 1606 1607 1607 1607 1607 1607 1608 1609 1609 1608 1607 1607 1606 1606 1605 1603 1601 1599 1597 1594 1592 1591
1551 1558 1563 1567 1571 1574 1576 1578 1581 1582 1583 1585 1587 1591 1593 1596 1597 1599 1600 1600 1601 1603 1604 1604 1604 1605 1605 1604 1604 1604 1604 1603 1604 1603 1602 1601 1600 1598 1597 1595 1593 1591 1589
1550 1552 1556 1565 1566 1568 1571 1572 1574 1578 1578 1580 1582 1584 1587 1590 1592 1592 1595 1596 1596 1597 1599 1600 1600 1601 1601 1601 1602 1602 1602 1601 1600 1600 1599 1598 1597 1595 1594 1593 1590 1589 1586
1550 1550 1552 1555 1558 1563 1566 1566 1568 1569 1572 1575 1575 1578 1580 1583 1585 1588 1589 1590 1591 1591 1592 1594 1595 1596 1596 1596 1596 1597 1597 1596 1596 1596 1595 1594 1593 1593 1592 1590 1588 1586 1582
1549 1550 1552 1554 1556 1557 1559 1562 1564 1565 1566 1567 1569 1571 1572 1574 1578 1580 1582 1584 1586 1586 1587 1588 1589 1591 1590 1590 1591 1592 1592 1591 1591 1591 1589 1589 1588 1588 1587 1585 1584 1582 1578
1551 1551 1550 1551 1552 1553 1555 1556 1558 1560 1562 1562 1563 1565 1566 1568 1570 1573 1575 1577 1578 1579 1581 1582 1582 1584 1585 1586 1586 1586 1585 1584 1585 1585 1583 1583 1582 1582 1581 1581 1578 1576 1574
1552 1550 1549 1547 1549 1549 1549 1550 1552 1554 1555 1556 1557 1558 1559 1560 1563 1565 1567 1569 1569 1569 1571 1573 1575 1576 1577 1580 1581 1581 1580 1579 1581 1579 1578 1577 1576 1576 1577 1576 1574 1574 1570
1553 1552 1550 1548 1547 1546 1545 1547 1547 1547 1548 1549 1549 1551 1552 1553 1555 1556 1559 1561 1562 1562 1563 1562 1564 1566 1569 1571 1572 1573 1572 1571 1574 1575 1574 1571 1571 1570 1570 1569 1567 1566 1566
1552 1551 1550 1547 1546 1544 1544 1542 1542 1542 1542 1542 1542 1543 1544 1545 1547 1549 1550 1552 1553 1554 1556 1556 1556 1555 1557 1560 1562 1563 1561 1565 1566 1566 1565 1564 1565 1564 1562 1560 1560 1560 1559
1548 1548 1547 1546 1544 1543 1541 1539 1538 1537 1537 1537 1536 1536 1537 1537 1539 1541 1542 1543 1544 1545 1546 1549 1550 1551 1550 1550 1552 1552 1554 1556 1557 1556 1555 1555 1557 1557 1557 1556 1553 1552 1551
1544 1543 1543 1542 1541 1539 1537 1537 1537 1535 1531 1529 1531 1532 1531 1530 1531 1533 1534 1535 1536 1537 1537 1538 1540 1542 1543 1543 1542 1543 1545 1546 1545 1545 1543 1542 1545 1548 1549 1549 1549 1546 1544
1539 1538 1538 1538 1537 1536 1534 1532 1532 1531 1530 1526 1525 1524 1520 1522 1524 1526 1528 1526 1526 1526 1527 1527 1528 1530 1532 1532 1534 1533 1534 1535 1535 1534 1533 1534 1536 1538 1539 1540 1540 1540 1540
1535 1534 1533 1533 1533 1532 1531 1529 1526 1524 1524 1521 1520 1519 1517 1516 1518 1518 1517 1517 1518 1517 1517 1517 1517 1519 1519 1520 1523 1524 1525 1525 1524 1524 1526 1527 1528 1530 1530 1532 1532 1532 1531
1530 1530 1529 1528 1527 1527 1525 1523 1521 1517 1516 1515 1514 1513 1512 1512 1512 1511 1510 1510 1510 1510 1510 1510 1509 1510 1512 1514 1514 1514 1515 1516 1517 1519 1518 1518 1520 1521 1522 1523 1524 1523 1523
1523 1523 1522 1521 1521 1521 1519 1518 1514 1513 1510 1507 1506 1506 1505 1504 1504 1503 1502 1500 1501 1502 1501 1501 1501 1501 1501 1504 1505 1506 1507 1508 1508 1509 1511 1513 1513 1513 1514 1514 1515 1515 1514
1517 1516 1515 1515 1515 1514 1513 1512 1509 1506 1504 1503 1500 1498 1497 1497 1495 1495 1493 1491 1490 1491 1492 1491 1490 1490 1493 1494 1499 1496 1496 1499 1499 1501 1501 1502 1504 1505 1506 1505 1507 1507 1507
1512 1511 1509 1507 1506 1507 1505 1502 1501 1498 1496 1494 1492 1490 1490 1489 1485 1486 1486 1483 1482 1481 1481 1479 1479 1478 1482 1484 1484 1484 1486 1488 1490 1490 1490 1492 1493 1495 1496 1497 1498 1499 1500
1507 1505 1503 1501 1499 1498 1497 1495 1493 1492 1488 1486 1484 1483 1483 1481 1480 1478 1477 1476 1474 1472 1471 1469 1471 1469 1469 1470 1471 1474 1475 1479 1480 1481 1481 1482 1484 1486 1486 1487 1488 1489 1488
1500 1498 1497 1493 1490 1489 1488 1487 1485 1484 1480 1479 1477 1476 1474 1472 1471 1469 1467 1466 1466 1463 1462 1461 1460 1460 1462 1463 1464 1466 1469 1470 1472 1472 1472 1474 1475 1475 1476 1478 1479 1479 1480
1495 1492 1490 1486 1482 1480 1480 1478 1476 1474 1470 1471 1470 1468 1465 1464 1461 1459 1458 1457 1457 1455 1453 1452 1452 1452 1453 1455 1456 1456 1459 1460 1462 1463 1463 1464 1465 1465 1467 1468 1468 1468 1469
1491 1487 1483 1479 1474 1471 1469 1468 1466 1465 1462 1463 1462 1458 1456 1455 1454 1450 1450 1449 1448 1447 1446 1445 1443 1441 1442 1444 1447 1449 1451 1451 1453 1455 1456 1455 1455 1455 1458 1459 1458 1458 1459
1485 1481 1476 1470 1466 1463 1460 1457 1455 1454 1453 1451 1450 1448 1446 1444 1443 1442 1441 1440 1439 1438 1437 1435 1434 1432 1433 1435 1436 1437 1440 1441 1446 1447 1446 1445 1444 1445 1447 1448 1450 1447 1448
1481 1476 1470 1464 1459 1455 1452 1448 1445 1443 1442 1441 1439 1438 1437 1435 1434 1434 1433 1432 1431 1430 1428 1426 1424 1425 1425 1425 1426 1428 1429 1431 1435 1437 1437 1436 1435 1436 1438 1437 1439 1434 1434
1479 1472 1466 1459 1452 1447 1445 1441 1438 1435 1432 1430 1428 1428 1427 1427 1425 1426 1425 1423 1422 1421 1420 1419 1418 1417 1417 1416 1419 1419 1420 1422 1425 1426 1426 1429 1429 1430 1430 1429 1425 1421 1432